"Pseudo-MPEC" for P12oASb

Created 2026 Jul 26 18:35:04 UT using Find_Orb

Click here for an explanation of pseudo-MPECs

 
 Astrometry: 
     P12oASb 0C2026 07 22.23650217 57 41.781+25 21 24.30   ~7PKK 20.48rUNEOCPI41
     P12oASb 0C2026 07 22.25837717 57 30.434+25 23 37.89   ~7PKK 19.70rUNEOCPI41
     P12oASb 0C2026 07 22.32268317 56 57.120+25 30 08.77   ~7PKK 21.48gUNEOCPI41
     P12oASb 0C2026 07 23.23253617 49 00.652+27 03 50.78   ~7PKK 20.19gUNEOCPI41
     P12oASb 0C2026 07 23.26501817 48 42.504+27 07 14.23   ~7PKK 20.25gUNEOCPI41
     P12oASb 0C2026 07 23.26549017 48 42.110+27 07 17.35   ~7PKK 20.46gUNEOCPI41
     P12oASb 0C2026 07 23.29551217 48 25.374+27 10 23.96   ~7PKK 20.66rUNEOCPI41
     P12oASb 0C2026 07 23.29873017 48 23.594+27 10 44.45   ~7PKK 20.04rUNEOCPI41
     P12oASb*0C2026 07 23.37338717 47 43.066+27 18 41.39   ~7NJ5 20.29wXNEOCPF51
     P12oASb 0C2026 07 23.38521217 47 36.362+27 19 55.39   ~7NJ5 20.29wXNEOCPF51
     P12oASb 0C2026 07 23.39687517 47 29.765+27 21 08.15   ~7NJ5 20.45wXNEOCPF51
     P12oASb 0C2026 07 23.40885217 47 22.984+27 22 22.95   ~7NJ5 20.31wXNEOCPF51
     P12oASb 0C2026 07 24.25829417 39 19.110+28 51 58.74   ~7PKK 19.50rUNEOCPI41
     P12oASb 0C2026 07 24.29164517 38 58.912+28 55 30.90   ~7PKK 19.83rUNEOCPI41
     P12oASb 0C2026 07 24.29211517 38 58.731+28 55 33.75   ~7PKK 20.59rUNEOCPI41
     P12oASb 0C2026 07 24.30741117 38 49.464+28 57 10.61   ~7PKK 19.83gUNEOCPI41
     P12oASb 1C2026 07 24.30759917 38 50.877+28 57 22.52   ~7OGo 20.28GVNEOCPT12
     P12oASb 1C2026 07 24.30810117 38 50.575+28 57 25.82   ~7OGo 20.31GVNEOCPT12
     P12oASb 1C2026 07 24.30860217 38 50.260+28 57 28.99   ~7OGo 20.20GVNEOCPT12
     P12oASb 0C2026 07 24.44229917 37 28.641+29 11 40.54   ~7OHZ 20.16GVNEOCPF51
     P12oASb 0C2026 07 24.44277617 37 28.309+29 11 43.92   ~7OHZ       VNEOCPF51
     P12oASb 0C2026 07 24.95531717 32 16.522+30 06 25.02   ~7ONo 20.0 GWNEOCPJ95
     P12oASb 0C2026 07 24.97151217 32 06.226+30 08 09.13   ~7ONo 20.2 GWNEOCPJ95
     P12oASb 0C2026 07 24.97768917 32 02.347+30 08 48.80   ~7ONo 20.3 GWNEOCPJ95
     P12oASb 1C2026 07 25.36096417 27 59.776+30 50 30.66   ~7PCo 20.22GVNEOCPT12
     P12oASb 1C2026 07 25.36215917 27 58.974+30 50 38.39   ~7PCo 20.44GVNEOCPT12
     P12oASb 1C2026 07 25.36335517 27 58.162+30 50 46.51   ~7PCo 20.17GVNEOCPT12
     P12oASb 1C2026 07 25.36514717 27 57.027+30 50 57.76   ~7PCox19.09GVNEOCPT12
     P12oASb 1C2026 07 25.37086817 27 53.209+30 51 34.47   ~7PCo 19.73GVNEOCPT12
     P12oASb 1C2026 07 25.37668917 27 49.355+30 52 12.40   ~7PCo 20.11GVNEOCPT12
     P12oASb 1C2026 07 25.38355117 27 44.840+30 52 56.57   ~7PCo 20.08GVNEOCPT12
     P12oASb 1C2026 07 25.39677917 27 36.097+30 54 21.68   ~7PCo 20.26GVNEOCPT12
     P12oASb KB2026 07 25.96999117 21 17.974+31 56 06.86   ~7Q05 20.2 GXNEOCP595
     P12oASb KB2026 07 25.98141417 21 10.150+31 57 21.42   ~7Q05 19.7 GXNEOCP595

Station data:
(595) Farra d'Isonzo  (N45.915731 E13.525780)  Italy.  Observers S. Aschi, E.
   Pettarin, G. Panterotto. Measurers S. Aschi, E. Pettarin. 0.40-m f/5.15
   reflector + CCD.
(F51) Pan-STARRS 1, Haleakala  (N20.707234 W156.255910)  US/Hawaii.
   Observers J. Herman, T. Lowe, P. Minguez, A. Schultz, I. Smith. Measurers
   K. Chambers, T. de Boer, J. Fairlamb, H. Gao, M. Huber, C.-C. Lin, E.
   Magnier, Y. Ramanjooloo, R. Wainscoat, R. Weryk. 1.8-m Ritchey-Chrétien +
   CCD.
(I41) Palomar Mountain--ZTF  (N33.357336 W116.859780)  US/California.
   Observers B. T. Bolin, Z. T. F. Collaboration. Measurers B. T. Bolin,
   Z.-Y. Lin, F. J. Masci. 1.2-m f/2.4 Schmidt.
(J95) Great Shefford  (N51.474969 W1.447003)  UK/England.  Observer P.
   Birtwhistle. 0.41-m f/6.3 Schmidt-Cassegrain + CCD.
(T12) Mauna Kea-UH/Tholen NEO Follow-Up (2.24-m)  (N19.822991 W155.469434)
   US/Hawaii.  Observer R. Weryk. 2.24-m f/10.1 University of Hawaii
   reflector.

Orbital elements:  P12oASb
   Perihelion 2026 Sep 17.033968 +/- 0.0978 TT =  0:48:54.8 (JD 2461300.533968)
Epoch 2026 Jul 25.0 TT = JDT 2461246.5   Earth MOID: 0.1802   Ju: 0.9217
M 347.001597192 +/- 0.27            (J2000 ecliptic)             AutoNEOCP
n   0.240559842 +/- 0.0047          Peri.  158.365198 +/- 0.14
a   2.560475522 +/- 0.0333          Node   243.658088 +/- 0.16
e   0.80291477 +/- 0.00307          Incl.   11.676677 +/- 0.07
P   4.09714                H 21.25  G  0.15   U  9.1
q 0.504631886 +/- 0.00127    Q 4.616319158 +/- 0.0679
33 of 34 observations 2026 July 22-25; mean residual 0".36
Residuals in arcseconds: 
260722 I41  .27+  .40-    260724 I41  .10+  .23+    260725 T12  .27+  .18-    
260722 I41  .16-  .10+    260724 I41  .34-  .25+    260725 T12  .10+  .16-    
260722 I41  .00   .61+    260724 I41  1.0+  .11+    260725 T12  .18-  .24+    
260723 I41  .49+  .71-    260724 I41  .81+  .15-    260725 T12( .44+  .07-)   
260723 I41  .56+  .14-    260724 T12  .09+  .12-    260725 T12  .09-  .26-    
260723 I41  1.2-  .03+    260724 T12  .14+  .04-    260725 T12  .22-  .15+    
260723 I41  .29-  .50-    260724 T12  .00   .08-    260725 T12  .00   .11+    
260723 I41  .00   .05-    260724 F51  .22+  .11-    260725 T12  .07-  .09+    
260723 F51  .01+  .07+    260724 F51  .31-  .25+    260725 595  1.0+  .57-    
260723 F51  .15-  .15+    260724 J95  .02-  .09+    260725 595  .82+  .41+    
260723 F51  .08-  .07+    260724 J95  .44-  .13+    
260723 F51  .07-  .13+    260724 J95  .04+  .13+    

Ephemerides (geocentric):
Date (UTC) HH   RA             Dec           delta  r     elong  mag " sig PA
---- --------  ------------   ------------  ------ ------ -----  --- --------
2026 07 26 19  17 11 47.310   +33 25 28.12  .22281 1.1125 110.2 20.3 .129 112
2026 07 26 20  17 11 17.320   +33 29 58.95  .22263 1.1119 110.1 20.3 .132 112
2026 07 26 21  17 10 47.235   +33 34 29.70  .22244 1.1113 110.0 20.3 .134 112
2026 07 26 22  17 10 17.053   +33 39 00.38  .22226 1.1107 109.8 20.3 .136 112
2026 07 26 23  17 09 46.775   +33 43 30.98  .22208 1.1101 109.7 20.3 .138 112
2026 07 27 00  17 09 16.400   +33 48 01.49  .22190 1.1095 109.5 20.3 .140 111
2026 07 27 01  17 08 45.929   +33 52 31.91  .22172 1.1089 109.4 20.3 .142 111
2026 07 27 02  17 08 15.360   +33 57 02.23  .22154 1.1083 109.2 20.4 .144 111
2026 07 27 03  17 07 44.694   +34 01 32.45  .22136 1.1078 109.1 20.4 .146 111
2026 07 27 04  17 07 13.930   +34 06 02.56  .22118 1.1072 108.9 20.4 .148 111
2026 07 27 05  17 06 43.069   +34 10 32.56  .22101 1.1066 108.8 20.4 .149 111
2026 07 27 06  17 06 12.110   +34 15 02.44  .22083 1.1060 108.6 20.4 .151 111
2026 07 27 07  17 05 41.053   +34 19 32.20  .22066 1.1054 108.5 20.4 .153 111
2026 07 27 08  17 05 09.897   +34 24 01.82  .22049 1.1048 108.3 20.4 .155 111
2026 07 27 09  17 04 38.643   +34 28 31.31  .22031 1.1042 108.2 20.4 .156 110
2026 07 27 10  17 04 07.290   +34 33 00.65  .22014 1.1036 108.0 20.4 .158 110
2026 07 27 11  17 03 35.838   +34 37 29.85  .21997 1.1031 107.9 20.4 .160 110
2026 07 27 12  17 03 04.287   +34 41 58.89  .21981 1.1025 107.7 20.4 .161 110
2026 07 27 13  17 02 32.637   +34 46 27.77  .21964 1.1019 107.6 20.4 .163 110
2026 07 27 14  17 02 00.887   +34 50 56.48  .21947 1.1013 107.4 20.4 .164 110
2026 07 27 15  17 01 29.038   +34 55 25.03  .21931 1.1007 107.3 20.4 .165 109
2026 07 27 16  17 00 57.089   +34 59 53.39  .21914 1.1001 107.1 20.4 .167 109
2026 07 27 17  17 00 25.040   +35 04 21.57  .21898 1.0995 107.0 20.4 .168 109
2026 07 27 18  16 59 52.891   +35 08 49.56  .21882 1.0989 106.8 20.4 .169 109
2026 07 27 19  16 59 20.641   +35 13 17.36  .21866 1.0983 106.7 20.4 .170 109
2026 07 27 20  16 58 48.291   +35 17 44.95  .21850 1.0978 106.5 20.4 .171 108
2026 07 27 21  16 58 15.840   +35 22 12.33  .21834 1.0972 106.4 20.4 .172 108
2026 07 27 22  16 57 43.289   +35 26 39.49  .21819 1.0966 106.2 20.4 .173 108
2026 07 27 23  16 57 10.636   +35 31 06.44  .21803 1.0960 106.1 20.4 .174 108
2026 07 28 00  16 56 37.882   +35 35 33.16  .21788 1.0954 105.9 20.4 .175 108
2026 07 28 01  16 56 05.027   +35 39 59.64  .21772 1.0948 105.8 20.4 .176 107
2026 07 28 02  16 55 32.071   +35 44 25.89  .21757 1.0942 105.6 20.4 .176 107
2026 07 28 03  16 54 59.013   +35 48 51.88  .21742 1.0936 105.5 20.4 .177 107
2026 07 28 04  16 54 25.853   +35 53 17.63  .21727 1.0930 105.3 20.4 .177 106
2026 07 28 05  16 53 52.591   +35 57 43.11  .21712 1.0924 105.2 20.4 .178 106
2026 07 28 06  16 53 19.227   +36 02 08.33  .21697 1.0919 105.0 20.4 .178 106
2026 07 28 07  16 52 45.761   +36 06 33.28  .21682 1.0913 104.8 20.4 .179 106
2026 07 28 08  16 52 12.193   +36 10 57.95  .21668 1.0907 104.7 20.4 .179 105
2026 07 28 09  16 51 38.522   +36 15 22.33  .21653 1.0901 104.5 20.4 .179 105
2026 07 28 10  16 51 04.749   +36 19 46.42  .21639 1.0895 104.4 20.4 .179 105
2026 07 28 11  16 50 30.873   +36 24 10.21  .21625 1.0889 104.2 20.4 .179 104
2026 07 28 12  16 49 56.894   +36 28 33.70  .21611 1.0883 104.1 20.4 .179 104
2026 07 28 13  16 49 22.813   +36 32 56.87  .21597 1.0877 103.9 20.4 .178 104
2026 07 28 14  16 48 48.628   +36 37 19.73  .21583 1.0871 103.8 20.4 .178 103
2026 07 28 15  16 48 14.340   +36 41 42.26  .21569 1.0865 103.6 20.4 .178 103
2026 07 28 16  16 47 39.949   +36 46 04.46  .21555 1.0859 103.5 20.4 .177 102
2026 07 28 17  16 47 05.455   +36 50 26.32  .21542 1.0854 103.3 20.4 .177 102
2026 07 28 18  16 46 30.857   +36 54 47.84  .21528 1.0848 103.2 20.4 .176 101